Home > Time Zones > World Clock > Weather > Germany > Ulm > Past weeks

Flag for Germany Weather past 2 weeks in Ulm, Baden-Württemberg, Germany

Now
55 °F

Refreshingly cool.


Feels Like: 55 °F
Forecast: 47 / 59 °F
Wind: 1 mph from Northwest

Location: Laupheim Airport

Current Time: Sep 5, 2015 at 2:20:02 AM

Latest Report: Sep 5, 2015 at 1:20 AM


Visibility: 4 mi

Pressure: 30.01 "Hg

Humidity: 59%

Dew point: 41 °F

Location of UlmLocation

Historic Weather in Ulm — Graph

°F

Ulm temperature yesterday

Maximum temperature yesterday: 66 °F (at 3:20 PM)
Minimum temperature yesterday: 52 °F (at 3:20 AM)
Average temperature yesterday: 57 °F

Past Weeks' High & Low Weather Summary

 TemperatureHumidityPressure
High90 °F (Aug 30, 3:20 PM)100% (Aug 21, 6:20 AM)30.30 "Hg (Aug 21, 6:20 AM)
Low46 °F (Aug 26, 5:20 AM)24% (Aug 31, 5:20 PM)29.74 "Hg (Aug 24, 8:20 AM)
Average65 °F69%30.04 "Hg
* Reported Aug 21 12:20 AM — Sep 5 12:20 AM, Ulm, Weather by CustomWeather, © 2015

Note: Actual official high and low records may vary slightly from our data, if they occured in-between our weather recording intervals... More about our weather records

Advertising

Ulm weather history for previous 24 hours

 ConditionsComfort  
Time TempWeatherWind HumidityBarometerVisibility
12:20 AM
Sat, Sep 5
55 °FRefreshingly cool.1 mph59%30.01 "Hg4 mi
11:20 PM
Fri, Sep 4
55 °FRefreshingly cool.2 mph59%30.01 "Hg4 mi
10:20 PM55 °FCool.2 mph63%30.01 "Hg4 mi
9:20 PM55 °FCool.3 mph63%30.01 "Hg4 mi
8:20 PM59 °FRefreshingly cool.6 mph55%29.98 "Hg5 mi
7:20 PM63 °FPassing clouds.3 mph49%29.98 "HgN/A
6:20 PM64 °FPassing clouds.5 mph46%29.98 "HgN/A
5:20 PM66 °FPassing clouds.7 mph46%29.95 "HgN/A
4:20 PM66 °FScattered clouds.3 mph46%29.98 "HgN/A
3:20 PM66 °FScattered clouds.8 mph46%30.01 "HgN/A
2:20 PM64 °FPassing clouds.9 mph49%30.01 "HgN/A
1:20 PM63 °FPassing clouds.8 mph56%30.01 "HgN/A
12:20 PM59 °FScattered clouds.6 mph72%30.04 "HgN/A
11:20 AM59 °FScattered clouds.6 mph77%30.04 "HgN/A
10:20 AM55 °FScattered clouds.6 mph88%30.04 "HgN/A
9:20 AM55 °FFog.6 mph94%30.04 "Hg2 mi
8:55 AM54 °FFog.2 mph94%30.04 "Hg2 mi
8:20 AM52 °FFog.3 mph100%30.04 "Hg1 mi
7:20 AM52 °FFog.2 mph100%30.01 "Hg1 mi
7:04 AM52 °FFog.1 mph94%30.01 "Hg1 mi
6:20 AM52 °FLight rain. Fog.3 mph94%30.01 "Hg1 mi
5:20 AM52 °FFog.3 mph94%30.01 "Hg0 mi
4:46 AM52 °FFog.3 mph100%30.01 "Hg1 mi
4:20 AM52 °FFog.2 mph94%30.01 "Hg1 mi
3:20 AM52 °FFog.1 mph100%30.01 "Hg3 mi
2:20 AM54 °FPartly cloudy.2 mph94%30.04 "Hg4 mi
Weather by CustomWeather, © 2015

See weather overviewHow to use our weather pages